OV1-20/OV1-21 DEB

Satellite information

Favourite Embed

Satellite Type and Status

DEBRISIN ORBIT

Key statistics

Satellite OV1-20/OV1-21 DEB at a glance.

Uptime

19853

Days in orbit

Revolutions

≈ 14.3

Per day

Orbit

LEO

Low Earth Orbit

Inclination

87.6

Latest

Satellite identification and parameters

Extended collection of information and parameters for OV1-20/OV1-21 DEB.

Object identification

Identified? True

Debris? True

Object name: OV1-20/OV1-21 DEB

International designator: 1971-067N

Object number (NORAD): 5384

Object ID (CCSDS): 5384

Country: UNITED STATES OF AMERICA (US)

Current information (Y/N): Y

RCS size: MEDIUM

Orbital parameters

Period: 101.039 minutes

Inclination: 87.6255 deg

SMA: 7186.005 km

Apoapsis: 863.587 km

Periapsis: 752.154 km

RAAN: 84.5437 deg

Eccentricy: 0.00775349

Argument of periapsis: 325.1544 deg

Mean anomaly: 34.4584 deg

Mean motion: 14.25185709 rev/day

Mean motion (dot): 0.00000465 rev/day2

B* drag term: 0.00018495065 1/REarth

Two-line elements (TLE)

Creation date: Dec. 12, 2025, 10:14 a.m.

Reference frame: TEME

Reference center: EARTH

Epoch: Dec. 12, 2025, 5:55 a.m. UTC

TLE line 0: 0 OV1-20/OV1-21 DEB

TLE line 1: 1 05384U 71067N 25346.24681734 .00000465 00000-0 18495-3 0 9991

TLE line 2: 2 05384 87.6255 84.5437 0077535 325.1544 34.4584 14.25185709816608

Live tracking on map

Real-time ground track for satellite OV1-20/OV1-21 DEB.

In-orbit conjunctions

A list of the most updated potential collisions computed for object OV1-20/OV1-21 DEB.

Target Orbit TCA Probability of collision Miss distance Type
SL-16 DEB LEO 2025-04-25 17:51:08 0.0001155953 197.0 (m) DEBRIS
NOAA 16 DEB SSO 2025-04-11 06:37:28 0.0001350234 155.0 (m) DEBRIS
BPA-2/SL-24 R/B SSO 2025-03-30 03:11:54 0.0002680281 805.0 (m) ROCKET BODY
FENGYUN 1C DEB SSO 2024-11-06 00:03:17 0.0001148908 256.0 (m) DEBRIS
CZ-6A DEB LEO 2024-10-11 15:28:45 0.0008830868 588.0 (m) DEBRIS

Associated space launch

High-density satellite designed to obtain atmospheric density data at low altitudes.

OV1-20/OV1-21 DEB was lifted into orbit during the mission ‘Atlas F | LOADS 2’, on board a Atlas F space rocket.

The launch took place on Aug. 7, 1971, 12:11 a.m. from 576A2.

For more information about the launch, click the button.

Launch to space Atlas F | LOADS 2
Atlas F | LOADS 2

Agency: N/A

Status: Launch Successful

Launch date: Aug. 7, 1971, 12:11 a.m. UTC

Rocket: Atlas F

Launch pad: 576A2

Location: Vandenberg SFB, CA, USA

...

Latest news about this satellite

There are no fresh news available about this satellite. Check back as we update our databases every day.


Newsletter sign-up

Weekly statistics, charts and insights to help you stay on top of the space industry.